1514415601.08,17055,4.69,71552.3,-5.85,-6.77,-6.77,0,*5E
1514415602.3,17056,4.69,71526.3,-5.85,-6.77,-6.77,0,*5D
1514415603.53,17057,4.69,71530.3,-5.85,-6.77,-6.81,0,*55
1514415604.75,17058,4.69,71544.3,-5.85,-6.77,-6.81,0,*5A
1514415605.96,17059,4.69,71548.5,-5.87,-6.81,-6.81,0,*50
1514415607.18,17060,4.69,71544.0,-5.87,-6.85,-6.93,0,*5D
1514415608.41,17061,4.69,71552.8,-5.85,-6.77,-6.81,0,*50
1514415609.64,17062,4.69,71560.0,-5.85,-6.81,-6.81,0,*5A
1514415610.86,17063,4.69,71558.3,-5.85,-6.77,-6.77,0,*5B
1514415612.09,17064,4.69,71554.8,-5.85,-6.77,-6.81,0,*55
1514415613.29,17065,4.69,71534.3,-5.87,-6.73,-6.73,0,*5F
1514415614.51,17066,4.69,71520.8,-5.85,-6.77,-6.77,0,*5E
1514415615.72,17067,4.69,71518.0,-5.85,-6.69,-6.77,0,*50
1514415616.91,17068,4.69,71526.8,-5.83,-6.69,-6.77,0,*59
1514415618.13,17069,4.69,71526.0,-5.85,-6.69,-6.77,0,*5E
1514415619.35,17070,4.69,71532.5,-5.85,-6.77,-6.77,0,*59
1514415620.55,17071,4.69,71540.5,-5.83,-6.77,-6.77,0,*5E
1514415621.77,17072,4.69,71554.8,-5.85,-6.77,-6.77,0,*5B
1514415622.99,17073,4.69,71538.3,-5.85,-6.77,-6.77,0,*5A
1514415624.22,17074,4.69,71544.3,-5.85,-6.77,-6.81,0,*54
1514415625.44,17075,4.69,71554.8,-5.85,-6.81,-6.77,0,*55
1514415626.67,17076,4.69,71548.0,-5.85,-6.77,-6.81,0,*56
1514415627.88,17077,4.69,71540.5,-5.85,-6.69,-6.77,0,*51
1514415629.11,17078,4.69,71564.5,-5.85,-6.77,-6.81,0,*58
1514415630.32,17079,4.69,71554.3,-5.85,-6.89,-6.89,0,*50
1514415631.52,17080,4.69,71550.5,-5.83,-6.89,-6.89,0,*50
1514415632.74,17081,4.69,71552.0,-5.85,-6.81,-6.89,0,*5F
1514415633.97,17082,4.69,71540.0,-5.85,-6.89,-6.81,0,*5C
1514415635.18,17083,4.69,71540.5,-5.85,-6.89,-6.89,0,*55
1514415636.41,17084,4.69,71546.5,-5.85,-6.77,-6.81,0,*5B
1514415637.63,17085,4.69,71548.8,-5.85,-6.81,-6.89,0,*5B
1514415638.85,17086,4.69,71552.0,-5.85,-6.81,-6.89,0,*58
1514415640.08,17087,4.69,71558.8,-5.85,-6.77,-6.81,0,*58
1514415641.3,17088,4.69,71602.0,-5.85,-6.77,-6.77,0,*5E
1514415642.51,17089,4.69,71590.5,-5.83,-6.81,-6.81,0,*59
1514415643.71,17090,4.69,71584.5,-5.83,-6.81,-6.89,0,*59
1514415644.93,17091,4.69,71588.5,-5.85,-6.77,-6.81,0,*5F
1514415646.15,17092,4.69,71574.3,-5.85,-6.89,-6.89,0,*55
1514415647.39,17093,4.69,71560.8,-5.85,-6.89,-7.01,0,*55
1514415648.64,17094,4.69,71558.3,-5.85,-6.81,-6.93,0,*50
1514415649.84,17095,4.69,71558.0,-5.87,-6.85,-6.85,0,*50
1514415651.05,17096,4.69,71550.5,-5.87,-6.81,-6.81,0,*53
1514415652.32,17097,4.69,71516.8,-5.85,-6.93,-6.93,0,*50
1514415653.54,17098,4.69,71518.0,-5.85,-6.81,-6.89,0,*57
1514415654.76,17099,4.69,71518.8,-5.85,-6.81,-6.89,0,*56
1514415655.96,17100,4.69,71526.8,-5.87,-6.85,-6.85,0,*5D
1514415657.16,17101,4.69,71538.8,-5.87,-6.81,-6.73,0,*51
1514415658.36,17102,4.69,71560.5,-5.87,-6.73,-6.81,0,*52
1514415659.57,17103,4.69,71576.0,-5.85,-6.69,-6.69,0,*5C
1514415660.79,17104,4.69,71590.3,-5.85,-6.77,-6.77,0,*5B
1514415662.01,17105,4.69,71592.8,-5.85,-6.69,-6.77,0,*55
1514415663.2,17106,4.69,71592.3,-5.87,-6.73,-6.69,0,*50
1514415664.4,17107,4.69,71588.5,-5.87,-6.73,-6.73,0,*5A
1514415665.59,17108,4.69,71584.8,-5.87,-6.73,-6.73,0,*55
1514415666.82,17109,4.69,71596.3,-5.85,-6.81,-6.77,0,*5F
1514415668.04,17110,4.69,71568.8,-5.85,-6.81,-6.77,0,*57
1514415669.26,17111,4.69,71564.0,-5.85,-6.89,-6.81,0,*57
1514415670.48,17112,4.69,71554.0,-5.85,-6.81,-6.77,0,*55
1514415671.7,17113,4.69,71544.8,-5.85,-6.77,-6.69,0,*52
1514415672.94,17114,4.69,71550.0,-5.85,-6.63,-6.69,0,*50
1514415674.17,17115,4.69,71550.3,-5.85,-6.63,-6.69,0,*51
1514415675.4,17116,4.69,71548.8,-5.85,-6.63,-6.69,0,*52
1514415676.62,17117,4.69,71562.5,-5.85,-6.81,-6.69,0,*5F
1514415677.84,17118,4.69,71516.3,-5.85,-6.89,-6.89,0,*56
1514415679.07,17119,4.69,71546.3,-5.85,-6.77,-6.81,0,*5E
1514415680.28,17120,4.69,71546.3,-5.85,-6.69,-6.77,0,*52
1514415681.47,17121,4.69,71552.5,-5.83,-6.69,-6.77,0,*55
1514415682.7,17122,4.69,71542.5,-5.85,-6.81,-6.77,0,*56
1514415683.92,17123,4.69,71542.8,-5.85,-6.81,-6.81,0,*5E
1514415685.14,17124,4.69,71550.8,-5.85,-6.69,-6.77,0,*56
1514415686.36,17125,4.69,71540.8,-5.85,-6.77,-6.77,0,*58
1514415687.58,17126,4.69,71530.5,-5.85,-6.77,-6.69,0,*54
1514415688.8,17127,4.69,71530.8,-5.85,-6.77,-6.77,0,*5A
1514415689.99,17128,4.69,71522.3,-5.83,-6.77,-6.69,0,*5C
1514415691.21,17129,4.69,71536.8,-5.85,-6.77,-6.77,0,*54
1514415692.43,17130,4.69,71536.5,-5.85,-6.77,-6.77,0,*5C
1514415693.63,17131,4.69,71542.8,-5.83,-6.77,-6.77,0,*5B
1514415694.84,17132,4.69,71538.8,-5.83,-6.77,-6.81,0,*51
1514415696.05,17133,4.69,71542.8,-5.85,-6.89,-6.89,0,*5F
1514415697.31,17134,4.69,71536.0,-5.87,-6.93,-6.93,0,*5A
1514415698.53,17135,4.69,71540.0,-5.85,-6.81,-6.81,0,*59
1514415699.74,17136,4.69,71544.0,-5.83,-6.81,-6.81,0,*5C
1514415700.97,17137,4.69,71552.3,-5.85,-6.81,-6.81,0,*5B
1514415702.18,17138,4.69,71554.8,-5.85,-6.89,-6.89,0,*54
1514415703.41,17139,4.69,71550.5,-5.85,-6.77,-6.81,0,*5C
1514415704.63,17140,4.69,71554.0,-5.85,-6.81,-6.89,0,*53
1514415705.86,17141,4.69,71538.8,-5.85,-6.89,-6.81,0,*52
1514415707.09,17142,4.69,71536.5,-5.85,-6.81,-6.81,0,*59
1514415708.31,17143,4.69,71538.0,-5.85,-6.81,-6.81,0,*58
1514415709.51,17144,4.69,71538.8,-5.83,-6.77,-6.89,0,*58
1514415710.73,17145,4.69,71516.5,-5.85,-6.77,-6.77,0,*5E
1514415711.93,17146,4.69,71506.5,-5.83,-6.77,-6.77,0,*5B
1514415713.15,17147,4.69,71508.0,-5.85,-6.81,-6.89,0,*54
1514415714.38,17148,4.69,71510.3,-5.85,-6.89,-6.81,0,*5B
1514415715.65,17149,4.69,71508.3,-5.85,-6.93,-7.01,0,*58
1514415716.87,17150,4.69,71508.0,-5.83,-7.01,-6.89,0,*5D
1514415718.11,17151,4.69,71518.5,-5.85,-6.89,-6.93,0,*50
1514415719.34,17152,4.69,71520.5,-5.85,-6.81,-6.81,0,*58
1514415720.56,17153,4.69,71522.8,-5.85,-6.81,-6.77,0,*50
1514415721.78,17154,4.69,71530.5,-5.85,-6.77,-6.77,0,*5E
1514415723.0,17155,4.69,71532.0,-5.85,-6.81,-6.77,0,*56
1514415724.22,17156,4.69,71544.8,-5.85,-6.77,-6.69,0,*53
1514415725.42,17157,4.69,71552.0,-5.83,-6.77,-6.77,0,*5B
1514415726.64,17158,4.69,71554.3,-5.85,-6.77,-6.77,0,*52
1514415727.87,17159,4.69,71554.3,-5.85,-6.81,-6.81,0,*53
1514415729.09,17160,4.69,71556.3,-5.85,-6.81,-6.89,0,*51
1514415730.31,17161,4.69,71572.0,-5.85,-6.89,-6.89,0,*58
1514415731.53,17162,4.69,71562.3,-5.85,-6.81,-6.89,0,*53
1514415732.76,17163,4.69,71556.5,-5.85,-6.81,-6.81,0,*5A
1514415733.98,17164,4.69,71564.8,-5.85,-6.89,-6.89,0,*5D
1514415735.2,17165,4.69,71566.3,-5.85,-6.81,-6.81,0,*5C
1514415736.43,17166,4.69,71560.3,-5.87,-6.93,-6.85,0,*5A
1514415737.65,17167,4.69,71572.5,-5.87,-6.85,-6.93,0,*5B
1514415738.9,17168,4.69,71588.3,-5.87,-6.93,-6.93,0,*53
1514415740.15,17169,4.69,71584.5,-5.87,-6.97,-6.93,0,*56
1514415741.41,17170,4.69,71582.5,-5.87,-6.93,-6.93,0,*5A
1514415742.68,17171,4.69,71570.5,-5.85,-6.93,-6.93,0,*59
1514415743.9,17172,4.69,71574.3,-5.85,-6.81,-6.81,0,*5A
1514415745.13,17173,4.69,71570.8,-5.85,-6.81,-6.77,0,*52
1514415746.35,17174,4.69,71574.0,-5.85,-6.81,-6.77,0,*55
1514415747.57,17175,4.69,71578.8,-5.85,-6.81,-6.89,0,*55
1514415748.77,17176,4.69,71588.8,-5.87,-6.85,-6.85,0,*5C
1514415750.0,17177,4.69,71586.5,-5.85,-6.77,-6.81,0,*56
1514415751.19,17178,4.69,71582.8,-5.83,-6.77,-6.69,0,*59
1514415752.4,17179,4.69,71572.5,-5.85,-6.69,-6.69,0,*51
1514415753.61,17180,4.69,71570.3,-5.85,-6.69,-6.69,0,*57
1514415754.83,17181,4.69,71566.8,-5.85,-6.89,-6.89,0,*56
1514415756.1,17182,4.69,71548.3,-5.85,-7.01,-6.93,0,*5F
1514415757.35,17183,4.69,71552.8,-5.85,-6.93,-6.81,0,*57
1514415758.6,17184,4.69,71554.0,-5.87,-6.93,-6.93,0,*51
1514415759.8,17185,4.69,71570.3,-5.87,-6.85,-6.85,0,*50
1514415761.02,17186,4.69,71564.5,-5.87,-6.93,-6.85,0,*54
1514415762.27,17187,4.69,71558.3,-5.87,-6.93,-6.93,0,*52
1514415763.47,17188,4.69,71572.8,-5.87,-6.85,-6.85,0,*5D
1514415764.67,17189,4.69,71568.5,-5.87,-6.73,-6.73,0,*5C
1514415765.87,17190,4.69,71602.8,-5.87,-6.85,-6.81,0,*50
1514415767.07,17191,4.69,71576.8,-5.87,-6.85,-6.81,0,*51
1514415768.3,17192,4.69,71568.3,-5.87,-6.93,-6.85,0,*51
1514415769.55,17193,4.69,71540.0,-5.87,-6.93,-6.93,0,*57
1514415770.8,17194,4.69,71546.3,-5.87,-7.05,-6.97,0,*5A
1514415772.04,17195,4.69,71532.0,-5.85,-6.89,-6.93,0,*58
1514415773.31,17196,4.69,71528.3,-5.85,-6.93,-6.93,0,*50
1514415774.51,17197,4.69,71546.0,-5.87,-6.81,-6.85,0,*57
1514415775.73,17198,4.69,71534.5,-5.85,-6.89,-6.89,0,*5E
1514415776.93,17199,4.69,71556.8,-5.87,-6.85,-6.85,0,*5D
1514415778.12,17200,4.69,71552.3,-5.87,-6.85,-6.85,0,*5E
1514415779.37,17201,4.69,71524.8,-5.87,-6.97,-6.97,0,*5F
1514415780.6,17202,4.69,71528.0,-5.87,-6.93,-6.85,0,*5B
1514415781.82,17203,4.69,71546.8,-5.89,-6.85,-6.85,0,*53
1514415783.02,17204,4.69,71548.3,-5.87,-6.81,-6.85,0,*5E
1514415784.22,17205,4.69,71552.5,-5.87,-6.73,-6.81,0,*56
1514415785.44,17206,4.69,71522.0,-5.87,-6.85,-6.93,0,*5F
1514415786.65,17207,4.69,71520.5,-5.87,-6.85,-6.81,0,*5D
1514415787.89,17208,4.69,71486.0,-5.87,-6.97,-7.05,0,*5C
1514415789.14,17209,4.69,71468.8,-5.87,-6.97,-7.05,0,*5D
1514415790.39,17210,4.69,71486.3,-5.87,-6.97,-6.97,0,*5F
1514415791.64,17211,4.69,71494.0,-5.87,-6.93,-6.93,0,*5E
1514415792.84,17212,4.69,71510.8,-5.87,-6.81,-6.85,0,*59
1514415794.05,17213,4.69,71534.5,-5.87,-6.81,-6.81,0,*5C
1514415795.25,17214,4.69,71542.5,-5.87,-6.85,-6.81,0,*5F
1514415796.45,17215,4.69,71540.8,-5.87,-6.85,-6.81,0,*5E
1514415797.68,17216,4.69,71546.8,-5.85,-6.81,-6.81,0,*5B
1514415798.89,17217,4.69,71538.3,-5.87,-6.81,-6.81,0,*58
1514415800.08,17218,4.69,71526.5,-5.87,-6.73,-6.73,0,*57
1514415801.29,17219,4.69,71528.8,-5.87,-6.81,-6.81,0,*56
1514415802.49,17220,4.69,71530.3,-5.87,-6.85,-6.85,0,*5C
1514415803.69,17221,4.69,71522.8,-5.87,-6.81,-6.85,0,*59
1514415804.89,17222,4.69,71512.5,-5.87,-6.85,-6.85,0,*5E
1514415806.09,17223,4.69,71510.5,-5.87,-6.81,-6.81,0,*5F
1514415807.32,17224,4.69,71500.8,-5.85,-6.81,-6.81,0,*5A
1514415808.55,17225,4.69,71498.5,-5.85,-6.81,-6.81,0,*5B
1514415809.77,17226,4.69,71514.3,-5.85,-6.77,-6.77,0,*58
1514415810.99,17227,4.69,71514.3,-5.85,-6.69,-6.77,0,*56
1514415812.2,17228,4.69,71522.3,-5.85,-6.69,-6.69,0,*56
1514415813.41,17229,4.69,71552.8,-5.85,-6.77,-6.69,0,*58
1514415814.62,17230,4.69,71544.3,-5.85,-6.69,-6.69,0,*5F
1514415815.87,17231,4.69,71532.5,-5.87,-6.93,-6.97,0,*58
1514415817.12,17232,4.69,71546.0,-5.87,-6.97,-6.97,0,*5F
1514415818.38,17233,4.69,71546.5,-5.87,-6.97,-6.97,0,*5E
1514415819.63,17234,4.69,71536.0,-5.87,-6.97,-6.97,0,*59
1514415820.87,17235,4.69,71550.8,-5.87,-6.97,-6.97,0,*58
1514415822.14,17236,4.69,71546.3,-5.85,-7.01,-6.93,0,*53
1514415823.39,17237,4.69,71550.3,-5.87,-6.97,-6.97,0,*5A
1514415824.64,17238,4.69,71562.0,-5.87,-6.93,-6.93,0,*55
1514415825.89,17239,4.69,71570.8,-5.87,-6.93,-6.93,0,*54
1514415827.09,17240,4.69,71562.5,-5.87,-6.73,-6.85,0,*53
1514415828.29,17241,4.69,71566.8,-5.87,-6.85,-6.85,0,*5B
1514415829.51,17242,4.69,71560.8,-5.89,-6.85,-6.85,0,*56
1514415830.72,17243,4.69,71552.3,-5.87,-6.81,-6.81,0,*59
1514415831.94,17244,4.69,71558.3,-5.89,-6.73,-6.73,0,*50
1514415833.19,17245,4.69,71540.8,-5.89,-6.81,-6.93,0,*52
1514415834.41,17246,4.69,71532.5,-5.89,-6.85,-6.85,0,*52
1514415835.61,17247,4.69,71526.0,-5.87,-6.81,-6.81,0,*5D
1514415836.82,17248,4.69,71514.3,-5.87,-6.81,-6.81,0,*52
1514415838.02,17249,4.69,71532.8,-5.87,-6.85,-6.85,0,*53
1514415839.21,17250,4.69,71554.5,-5.87,-6.85,-6.85,0,*5B
1514415840.41,17251,4.69,71562.3,-5.87,-6.73,-6.73,0,*5A
1514415841.61,17252,4.69,71560.0,-5.87,-6.73,-6.73,0,*59
1514415842.81,17253,4.69,71558.3,-5.87,-6.73,-6.73,0,*58
1514415844.0,17254,4.69,71558.8,-5.87,-6.73,-6.73,0,*5F
1514415845.23,17255,4.69,71556.0,-5.89,-6.81,-6.73,0,*5D
1514415846.43,17256,4.69,71552.0,-5.87,-6.81,-6.73,0,*50
1514415847.63,17257,4.69,71556.0,-5.87,-6.85,-6.81,0,*58
1514415848.83,17258,4.69,71544.0,-5.87,-6.85,-6.81,0,*57
1514415850.08,17259,4.69,71540.5,-5.87,-6.93,-6.93,0,*52
1514415851.31,17260,4.69,71574.3,-5.87,-6.93,-6.85,0,*5F
1514415852.54,17261,4.69,71554.0,-5.87,-6.93,-6.81,0,*5A
1514415853.74,17262,4.69,71562.5,-5.87,-6.73,-6.73,0,*5A
1514415854.97,17263,4.69,71554.3,-5.89,-6.81,-6.81,0,*55
1514415856.17,17264,4.69,71574.3,-5.87,-6.81,-6.73,0,*51
1514415857.37,17265,4.69,71570.0,-5.87,-6.85,-6.85,0,*5D
1514415858.57,17266,4.69,71574.8,-5.87,-6.73,-6.81,0,*53
1514415859.77,17267,4.69,71564.0,-5.87,-6.81,-6.85,0,*5B
1514415860.99,17268,4.69,71554.3,-5.87,-6.85,-6.93,0,*57
1514415862.24,17269,4.69,71546.3,-5.87,-6.97,-6.97,0,*51
1514415863.46,17270,4.69,71538.0,-5.87,-6.85,-6.97,0,*5A
1514415864.69,17271,4.69,71500.0,-5.87,-6.93,-6.85,0,*5F
1514415865.89,17272,4.69,71556.3,-5.87,-6.85,-6.85,0,*5B
1514415867.09,17273,4.69,71522.5,-5.87,-6.81,-6.85,0,*5E
1514415868.31,17274,4.69,71558.0,-5.87,-6.85,-6.93,0,*5A
1514415869.51,17275,4.69,71532.5,-5.87,-6.85,-6.73,0,*55
1514415870.71,17276,4.69,71518.0,-5.87,-6.85,-6.81,0,*5B
1514415871.91,17277,4.69,71536.5,-5.87,-6.85,-6.81,0,*5A
1514415873.11,17278,4.75,71546.3,-5.87,-6.73,-6.73,0,*51
1514415874.33,17279,4.69,71554.3,-5.89,-6.81,-6.85,0,*5A
1514415875.53,17280,4.69,71586.3,-5.87,-6.85,-6.85,0,*56
1514415876.78,17281,4.69,71596.0,-5.87,-6.97,-6.93,0,*53
1514415877.98,17282,4.69,71616.0,-5.87,-6.81,-6.85,0,*50
1514415879.19,17283,4.69,71624.3,-5.87,-6.73,-6.81,0,*58
1514415880.39,17284,4.69,71630.0,-5.87,-6.81,-6.73,0,*5F
1514415881.59,17285,4.69,71626.0,-5.87,-6.81,-6.81,0,*53
1514415882.79,17286,4.69,71628.3,-5.87,-6.81,-6.73,0,*5D
1514415884.0,17287,4.75,71646.8,-5.87,-6.73,-6.81,0,*5C
1514415885.2,17288,4.75,71644.8,-5.87,-6.81,-6.81,0,*5E
1514415886.43,17289,4.69,71616.5,-5.85,-6.77,-6.81,0,*54
1514415887.7,17290,4.69,71630.8,-5.85,-7.01,-7.01,0,*55
1514415888.95,17291,4.69,71644.8,-5.85,-6.93,-6.89,0,*5F
1514415890.2,17292,4.69,71586.0,-5.87,-6.93,-6.93,0,*55
1514415891.45,17293,4.75,71558.8,-5.87,-6.97,-6.97,0,*54
1514415892.65,17294,4.69,71550.3,-5.87,-7.19,-7.19,0,*53
1514415893.89,17295,4.69,71576.0,-5.85,-7.05,-7.15,0,*51
1514415895.16,17296,4.69,71576.3,-5.85,-7.01,-7.01,0,*53
1514415896.44,17297,4.69,71584.8,-5.89,-6.97,-6.93,0,*5A
1514415897.66,17298,4.69,71560.8,-5.87,-6.93,-6.85,0,*58
1514415898.86,17299,4.69,71550.3,-5.87,-6.81,-6.85,0,*5A
1514415900.08,17300,4.69,71552.8,-5.89,-6.85,-6.85,0,*51
1514415901.33,17301,4.75,71558.8,-5.87,-6.97,-7.05,0,*54
1514415902.58,17302,4.69,71562.3,-5.87,-6.97,-6.93,0,*59
1514415903.85,17303,4.69,71544.5,-5.89,-7.05,-6.97,0,*58
1514415905.07,17304,4.69,71548.5,-5.87,-7.11,-7.05,0,*5E
1514415906.34,17305,4.69,71568.0,-5.89,-6.97,-6.97,0,*54
1514415907.55,17306,4.69,71600.8,-5.87,-6.81,-6.81,0,*59
1514415908.75,17307,4.69,71576.0,-5.87,-6.81,-6.73,0,*55
1514415909.95,17308,4.69,71540.0,-5.87,-6.73,-6.81,0,*5A
1514415911.18,17309,4.69,71536.3,-5.85,-6.81,-6.81,0,*54
1514415912.45,17310,4.69,71514.3,-5.85,-6.93,-6.93,0,*5C
1514415913.72,17311,4.69,71516.5,-5.89,-6.97,-7.05,0,*5B
1514415914.99,17312,4.69,71524.3,-5.89,-7.05,-6.97,0,*58
1514415916.24,17313,4.69,71556.8,-5.87,-6.93,-6.97,0,*59
1514415917.46,17314,4.69,71546.5,-5.89,-6.85,-6.85,0,*54
1514415918.71,17315,4.69,71542.3,-5.87,-6.93,-6.93,0,*5B
1514415919.95,17316,4.69,71528.0,-5.87,-7.05,-7.05,0,*58
1514415921.2,17317,4.69,71526.8,-5.87,-6.97,-7.05,0,*53
1514415922.46,17318,4.69,71562.3,-5.89,-7.05,-7.05,0,*58
1514415923.68,17319,4.69,71574.5,-5.87,-6.85,-6.97,0,*54
1514415924.93,17320,4.69,71576.0,-5.87,-6.97,-6.97,0,*5D
1514415926.18,17321,4.69,71538.3,-5.87,-6.93,-6.97,0,*58
1514415927.43,17322,4.69,71564.5,-5.87,-6.97,-6.93,0,*5B
1514415928.63,17323,4.69,71578.3,-5.87,-6.85,-6.85,0,*5E
1514415929.83,17324,4.69,71586.5,-5.87,-6.81,-6.85,0,*5D
1514415931.03,17325,4.69,71582.3,-5.87,-6.81,-6.85,0,*5C
1514415932.28,17326,4.75,71592.3,-5.89,-6.85,-6.93,0,*52
1514415933.54,17327,4.69,71580.5,-5.89,-6.97,-7.05,0,*5E
1514415934.78,17328,4.69,71534.8,-5.87,-7.05,-7.05,0,*55
1514415936.03,17329,4.69,71572.0,-5.87,-6.97,-6.97,0,*54
1514415937.28,17330,4.75,71596.0,-5.85,-6.93,-6.89,0,*55
1514415938.55,17331,4.69,71580.5,-5.89,-6.97,-6.97,0,*53
1514415939.78,17332,4.69,71568.3,-5.87,-7.05,-7.11,0,*5B
1514415940.99,17333,4.69,71562.0,-5.87,-7.11,-7.11,0,*5F
1514415942.26,17334,4.69,71570.3,-5.89,-6.97,-6.97,0,*56
1514415943.51,17335,4.75,71582.3,-5.87,-6.93,-6.97,0,*5D
1514415944.76,17336,4.69,71610.3,-5.89,-6.93,-6.85,0,*53
1514415946.03,17337,4.69,71590.0,-5.89,-6.97,-7.05,0,*5F
1514415947.27,17338,4.69,71582.8,-5.87,-6.97,-7.05,0,*5E
1514415948.55,17339,4.75,71594.5,-5.89,-6.93,-6.93,0,*5B
1514415949.8,17340,4.69,71588.5,-5.87,-6.97,-6.93,0,*5F
1514415951.05,17341,4.69,71604.8,-5.87,-6.93,-6.97,0,*5E
1514415952.3,17342,4.69,71630.8,-5.87,-6.97,-6.97,0,*59
1514415953.55,17343,4.69,71632.0,-5.87,-6.97,-6.93,0,*5C
1514415954.8,17344,4.69,71634.3,-5.87,-6.97,-6.97,0,*5F
1514415956.05,17345,4.75,71632.0,-5.87,-6.93,-6.97,0,*5A
1514415957.32,17346,4.75,71630.8,-5.89,-6.97,-6.97,0,*53
1514415958.6,17347,4.69,71604.8,-5.89,-6.93,-6.93,0,*52
1514415959.85,17348,4.69,71594.5,-5.87,-6.93,-6.93,0,*53
1514415961.07,17349,4.69,71620.5,-5.87,-6.85,-6.93,0,*55
1514415962.3,17350,4.75,71614.3,-5.87,-6.93,-6.85,0,*5D
1514415963.53,17351,4.69,71600.5,-5.87,-6.93,-6.81,0,*58
1514415964.76,17352,4.75,71592.0,-5.89,-6.81,-6.81,0,*56
1514415965.99,17353,4.69,71602.3,-5.89,-6.85,-6.81,0,*53
1514415967.18,17354,4.69,71604.8,-5.87,-6.85,-6.85,0,*5E
1514415968.46,17355,4.69,71600.0,-5.89,-6.97,-6.93,0,*55
1514415969.73,17356,4.69,71590.3,-5.89,-6.97,-6.93,0,*56
1514415971.01,17357,4.69,71598.5,-5.89,-6.97,-6.97,0,*53
1514415972.26,17358,4.75,71588.8,-5.87,-6.93,-6.93,0,*52
1514415973.48,17359,4.69,71594.0,-5.87,-6.85,-6.97,0,*50
1514415974.7,17360,4.69,71578.5,-5.87,-6.85,-6.93,0,*5E
1514415975.93,17361,4.69,71592.5,-5.87,-6.81,-6.93,0,*5B
1514415977.18,17362,4.69,71606.0,-5.87,-6.93,-6.93,0,*5B
1514415978.37,17363,4.69,71596.5,-5.87,-6.85,-6.85,0,*5A
1514415979.6,17364,4.69,71576.0,-5.87,-6.85,-6.97,0,*5E
1514415980.85,17365,4.75,71594.0,-5.87,-6.93,-6.93,0,*5C
1514415982.1,17366,4.69,71584.0,-5.87,-6.93,-6.93,0,*5F
1514415983.37,17367,4.75,71588.3,-5.89,-6.93,-6.93,0,*50
1514415984.59,17368,4.69,71592.5,-5.89,-6.85,-6.85,0,*5F
1514415985.84,17369,4.75,71604.0,-5.87,-6.93,-6.93,0,*50
1514415987.04,17370,4.69,71592.0,-5.87,-6.85,-6.85,0,*58
1514415988.29,17371,4.69,71590.5,-5.89,-6.85,-6.93,0,*50
1514415989.53,17372,4.69,71566.0,-5.87,-6.97,-7.05,0,*50
1514415990.78,17373,4.69,71576.8,-5.87,-6.93,-6.93,0,*5B
1514415992.01,17374,4.69,71568.3,-5.87,-6.97,-7.11,0,*53
1514415993.26,17375,4.75,71544.8,-5.87,-6.97,-6.97,0,*5D
1514415994.54,17376,4.69,71544.8,-5.89,-6.97,-6.93,0,*54
1514415995.81,17377,4.69,71558.5,-5.89,-6.97,-6.93,0,*55
1514415997.05,17378,4.69,71592.8,-5.87,-6.97,-7.05,0,*5A
1514415998.33,17379,4.69,71556.3,-5.89,-6.93,-6.97,0,*5B
1514415999.55,17380,4.69,71556.0,-5.87,-6.85,-6.93,0,*50
1514416000.78,17381,4.69,71554.5,-5.87,-6.93,-6.85,0,*51
1514416002.03,17382,4.69,71558.3,-5.87,-6.97,-6.93,0,*51
1514416003.27,17383,4.69,71530.3,-5.87,-7.05,-7.05,0,*54
1514416004.53,17384,4.69,71558.3,-5.89,-6.93,-7.05,0,*53
1514416005.78,17385,4.69,71540.5,-5.87,-6.97,-6.97,0,*52
1514416007.03,17386,4.69,71544.3,-5.87,-6.97,-6.93,0,*55
1514416008.28,17387,4.69,71556.3,-5.89,-6.97,-6.85,0,*5D
1514416009.53,17388,4.69,71562.8,-5.87,-6.97,-7.05,0,*55
1514416010.78,17389,4.69,71566.8,-5.87,-6.93,-6.97,0,*5A
1514416012.0,17390,4.69,71544.8,-5.87,-6.97,-6.85,0,*55
1514416013.24,17391,4.69,71556.3,-5.87,-7.05,-7.05,0,*57
1514416014.49,17392,4.75,71560.3,-5.87,-7.05,-6.97,0,*5E
1514416015.69,17393,4.69,71560.0,-5.87,-6.81,-6.85,0,*51
1514416016.91,17394,4.69,71552.3,-5.89,-6.85,-6.85,0,*5C
1514416018.12,17395,4.69,71558.0,-5.87,-6.81,-6.81,0,*53
1514416019.33,17396,4.69,71570.3,-5.87,-6.81,-6.81,0,*50
1514416020.55,17397,4.69,71572.8,-5.89,-6.85,-6.81,0,*5B
1514416021.8,17398,4.69,71558.8,-5.87,-6.93,-6.97,0,*5A
1514416023.05,17399,4.69,71524.8,-5.87,-6.93,-6.97,0,*5B
1514416024.25,17400,4.69,71556.3,-5.87,-6.85,-6.85,0,*58
1514416025.48,17401,4.69,71566.0,-5.89,-6.73,-6.81,0,*5A
1514416026.67,17402,4.69,71550.8,-5.87,-6.85,-6.85,0,*5A
1514416027.92,17403,4.69,71536.3,-5.87,-6.93,-6.93,0,*5B
1514416029.15,17404,4.75,71556.5,-5.89,-6.85,-6.85,0,*52
1514416030.4,17405,4.75,71568.5,-5.87,-6.93,-6.93,0,*5D
1514416031.65,17406,4.69,71550.8,-5.87,-6.93,-6.97,0,*5A
1514416032.9,17407,4.69,71548.3,-5.87,-6.93,-6.93,0,*5F
1514416034.12,17408,4.75,71542.3,-5.87,-6.85,-6.93,0,*57
1514416035.37,17409,4.69,71544.8,-5.87,-6.93,-6.93,0,*51
1514416036.62,17410,4.69,71544.3,-5.87,-6.97,-6.93,0,*5D
1514416037.84,17411,4.69,71540.8,-5.87,-6.85,-6.93,0,*5F
1514416039.05,17412,4.75,71568.3,-5.87,-6.73,-6.81,0,*56
1514416040.28,17413,4.69,71562.5,-5.89,-6.81,-6.81,0,*54
1514416041.53,17414,4.69,71558.3,-5.89,-6.93,-6.85,0,*54
1514416042.78,17415,4.69,71550.3,-5.87,-6.97,-6.97,0,*5C
1514416044.02,17416,4.69,71546.8,-5.89,-6.85,-6.97,0,*52
1514416045.22,17417,4.69,71542.0,-5.87,-6.85,-6.85,0,*5E
1514416046.47,17418,4.69,71540.8,-5.87,-6.93,-6.93,0,*51
1514416047.71,17419,4.69,71544.8,-5.87,-7.05,-7.05,0,*50
1514416048.96,17420,4.75,71534.0,-5.87,-6.97,-6.93,0,*5E
1514416050.21,17421,4.69,71564.0,-5.87,-6.93,-6.97,0,*5F
1514416051.45,17422,4.69,71554.5,-5.87,-7.05,-7.05,0,*58
1514416052.72,17423,4.69,71550.5,-5.89,-6.93,-6.93,0,*57
1514416053.97,17424,4.69,71540.5,-5.89,-6.93,-6.85,0,*57
1514416055.22,17425,4.69,71518.8,-5.87,-6.97,-6.97,0,*5F
1514416056.47,17426,4.69,71516.0,-5.87,-6.97,-7.05,0,*56
1514416057.72,17427,4.69,71526.5,-5.87,-6.97,-6.93,0,*59
1514416058.94,17428,4.69,71528.3,-5.87,-6.93,-6.85,0,*55
1514416060.16,17429,4.69,71534.5,-5.89,-6.85,-6.85,0,*5D
1514416061.38,17430,4.69,71532.8,-5.89,-6.85,-6.85,0,*55
1514416062.61,17431,4.69,71542.3,-5.87,-6.97,-6.85,0,*59
1514416063.82,17432,4.69,71554.3,-5.87,-6.81,-6.81,0,*59
1514416065.02,17433,4.69,71562.5,-5.87,-6.85,-6.81,0,*5C
1514416066.22,17434,4.69,71566.0,-5.87,-6.73,-6.81,0,*52
1514416067.42,17435,4.69,71576.3,-5.87,-6.85,-6.85,0,*5E
1514416068.64,17436,4.69,71578.5,-5.89,-6.85,-6.85,0,*53
1514416069.84,17437,4.69,71588.3,-5.87,-6.85,-6.85,0,*5C
1514416071.04,17438,4.69,71592.8,-5.87,-6.85,-6.85,0,*53
1514416072.29,17439,4.75,71598.3,-5.87,-6.93,-6.93,0,*52
1514416073.54,17440,4.69,71578.5,-5.87,-6.93,-6.93,0,*5C
1514416074.79,17441,4.69,71568.8,-5.87,-6.97,-6.97,0,*5D
1514416075.98,17442,4.69,71570.8,-5.87,-6.85,-6.85,0,*5E
1514416077.23,17443,4.69,71578.5,-5.87,-6.93,-6.97,0,*5B
1514416078.46,17444,4.75,71586.3,-5.87,-6.85,-6.93,0,*5F
1514416079.66,17445,4.69,71588.0,-5.87,-6.81,-6.85,0,*5D
1514416080.85,17446,4.75,71602.3,-5.87,-6.85,-6.85,0,*5A
1514416082.11,17447,4.69,71602.8,-5.87,-6.97,-6.93,0,*5F
1514416083.36,17448,4.75,71592.3,-5.87,-6.97,-6.97,0,*54
1514416084.6,17449,4.69,71602.3,-5.87,-6.97,-6.97,0,*55
1514416085.86,17450,4.75,71604.5,-5.87,-6.93,-6.93,0,*5D
1514416087.11,17451,4.69,71598.0,-5.87,-6.93,-6.93,0,*5C
1514416088.36,17452,4.75,71592.0,-5.87,-6.93,-6.93,0,*5F
1514416089.55,17453,4.75,71592.3,-5.87,-6.85,-6.85,0,*5E
1514416090.81,17454,4.75,71594.8,-5.87,-6.93,-6.97,0,*5D
1514416092.05,17455,4.75,71592.0,-5.87,-7.05,-7.05,0,*58
1514416093.29,17456,4.75,71596.5,-5.87,-7.05,-7.05,0,*5B
1514416094.54,17457,4.75,71596.8,-5.87,-6.97,-6.97,0,*5A
1514416095.79,17458,4.69,71588.5,-5.87,-6.97,-6.97,0,*55
1514416097.03,17459,4.69,71582.0,-5.87,-7.05,-7.05,0,*54
1514416098.25,17460,4.75,71584.0,-5.87,-7.05,-7.11,0,*5B
1514416099.52,17461,4.69,71580.5,-5.89,-6.97,-7.05,0,*5B
1514416100.77,17462,4.75,71594.3,-5.89,-6.97,-6.85,0,*51
1514416101.97,17463,4.69,71610.3,-5.87,-6.85,-6.81,0,*59
1514416103.17,17464,4.69,71606.3,-5.87,-6.85,-6.85,0,*5A
1514416104.44,17465,4.69,71566.8,-5.89,-6.93,-6.97,0,*51
1514416105.69,17466,4.69,71580.5,-5.87,-6.97,-6.97,0,*58
1514416106.89,17467,4.75,71598.5,-5.87,-6.85,-6.85,0,*59
1514416108.14,17468,4.69,71606.0,-5.87,-6.93,-6.93,0,*56
1514416109.34,17469,4.75,71592.8,-5.87,-6.85,-6.85,0,*57
1514416110.54,17470,4.69,71582.5,-5.87,-6.81,-6.85,0,*5B
1514416111.79,17471,4.75,71564.3,-5.87,-6.93,-6.97,0,*5A
1514416113.02,17472,4.75,71558.5,-5.87,-7.05,-7.11,0,*58
1514416114.27,17473,4.69,71552.0,-5.87,-6.97,-6.97,0,*5C
1514416115.49,17474,4.69,71618.5,-5.89,-6.85,-6.85,0,*55
1514416116.68,17475,4.75,71598.5,-5.87,-6.85,-6.85,0,*5A